Zurück zum Katalog

COSMOS 962

AktivMilitärPO
NORAD 10459·PAYLOAD·🇷🇺 Russia

Gestartet Oct 28, 1977 von Plesetsk Cosmodrome

Loading…

Nächste Überflüge (nächste 24 Stunden)

TLE

AktuellSource: Space-Track

Epoche: Sep 14, 2026, 10:29 UTC

1 10459U 77107A   26257.43702230  .00000019  00000-0  46265-5 0  9992
2 10459  82.9464  73.5466 0027536 221.3116 155.3394 13.74910360451660

Verfolge COSMOS 962 in Echtzeit mit AllMySat

Download on the App Store